Home   Weather   Byron Bay   Past weeks
Flag for Australia

Past Weather in Byron Bay, New South Wales, Australia — Yesterday and Last 2 Weeks

Now
43 °F

Quite cool.


Feels Like: 43 °F
Forecast: 65 / 50 °F
Wind: No wind

Location: Ballina Airport Aws

Current Time: Jul 20, 2019 at 2:42:23 am

Latest Report: Jul 20, 2019 at 2:00 am


Visibility: N/A

Pressure: 30.20 "Hg

Humidity: 96%

Dew Point: 42 °F

Location of Byron BayLocation

Past Weather in Byron Bay — Graph

°F

Byron Bay Temperature Yesterday

Maximum temperature yesterday: 70 °F (at 2:00 pm)
Minimum temperature yesterday: 41 °F (at 3:00 am)
Average temperature yesterday: 53 °F

High & Low Weather Summary for the Past Weeks

 TemperatureHumidityPressure
High74 °F (Jul 12, 3:00 pm)100% (Jul 7, 9:00 am)30.47 "Hg (Jul 7, 9:00 am)
Low39 °F (Jul 14, 11:00 pm)29% (Jul 12, 12:00 pm)29.89 "Hg (Jul 13, 2:00 pm)
Average57 °F73%30.14 "Hg
* Reported Jul 5 12:00 am — Jul 20 12:00 am, Byron Bay. Weather by CustomWeather, © 2019

Note: Actual official high and low records may vary slightly from our data, if they occured in-between our weather recording intervals... More about our weather records

Advertising

Byron Bay Weather History for the Previous 24 Hours

Scroll right to see more
 ConditionsComfort  
Time TempWeatherWind HumidityBarometerVisibility
12:00 am
Sat, Jul 20
42 °FQuite cool.No wind96%30.19 "Hg2 mi
11:00 pm
Fri, Jul 19
44 °FQuite cool.No wind95%30.18 "HgN/A
9:00 pm48 °FCool.No wind94%30.16 "HgN/A
8:00 pm48 °FCool.No wind92%30.15 "HgN/A
6:00 pm55 °FCool.No wind80%30.10 "HgN/A
5:00 pm63 °FMild.6 mph60%30.08 "HgN/A
3:00 pm69 °FMild.6 mph40%30.06 "HgN/A
2:00 pm70 °FMild.3 mph33%30.07 "HgN/A
12:00 pm68 °FMild.8 mph41%30.10 "HgN/A
11:00 am67 °FMild.9 mph40%30.13 "HgN/A
9:00 am59 °FRefreshingly cool.7 mph58%30.15 "HgN/A
8:00 am51 °FCool.No wind96%30.14 "HgN/A
6:00 am42 °FQuite cool.2 mph92%30.10 "HgN/A
5:00 am41 °FQuite cool.3 mph96%30.09 "HgN/A
3:00 am41 °FQuite cool.No wind96%30.09 "HgN/A
2:00 am42 °FQuite cool.No wind96%30.08 "HgN/A
Weather by CustomWeather, © 2019

See weather overview